カタログに戻る

WISDOM-A

運用中科学SSO
NORAD 66688·PAYLOAD·🇭🇺 Hungary

打ち上げ Nov 28, 2025 から Vandenberg Space Force Base

Loading…

次のパス (今後24時間)

TLE

最新Source: Space-Track

元期: Sep 14, 2026, 11:27 UTC

1 66688U 25276Y   26257.47766617  .00004088  00000-0  19253-3 0  9995
2 66688  97.4145 329.4375 0006062  57.9348 302.2475 15.20064065 43974

AllMySatでWISDOM-Aをリアルタイム追跡

Download on the App Store